Regional Weather Roundup
Issued by NWS Grand Forks, ND

Home | Current Version | Previous Version | Text Only | Print | Product List | Glossary Off
Versions: 1 2 3 4 5 6 7 8 9 10 11 12 13 14 15 16 17 18 19 20 21 22 23 24 25 26 27 28 29 30 31 32 33 34 35 36 37 38 39 40 41 42 43 44 45 46 47 48 49 50

000
ASUS43 KFGF 270210
RWRFGF
PRAIRIE TO PINES  WEATHER ROUNDUP
NATIONAL WEATHER SERVICE EASTERN NORTH DAKOTA/GRAND FORKS ND
800 PM CST SUN FEB 26 2017

 **SATELLITE DATA USED TO AUGMENT SKY COVER AT AUTOMATED STATIONS**
 *****  WEATHER ACROSS EASTERN NORTH DAKOTA  *****

CITY           SKY/WX    TMP DP  RH WIND       PRES   REMARKS
GRAND FORKS    FAIR      10   1  67 S3        29.89R
GRAND FRKS AFB FAIR       8   3  81 W3        29.89R
DEVILS LAKE    FAIR       7   4  87 SW7       29.85R WCI  -5
FARGO          CLOUDY    18  11  74 SE6       29.89F WCI  10
WAHPETON ARPT    N/A     19  12  73 E3        29.90S
$$

 ***** WEATHER ACROSS CENTRAL AND WESTERN NORTH DAKOTA  *****

CITY           SKY/WX    TMP DP  RH WIND       PRES   REMARKS
BISMARCK       CLOUDY    20  14  77 NE5       29.85R WCI  13
MINOT          MOCLDY    17  10  74 SW10      29.80S WCI   5
JAMESTOWN      CLOUDY    21  15  78 CALM      29.83S
MINOT AFB      CLOUDY    17  12  80 SW12      29.79S WCI   4
GARRISON         N/A     13   9  84 CALM      29.81R
WILLISTON      CLOUDY    22  17  81 SW5       29.81R WCI  16
DICKINSON      FAIR      19  12  74 N5        29.77R WCI  12
HETTINGER      FAIR      22  19  89 N5        29.79R WCI  16
$$

 *****  OTHER AIRPORT OBSERVATIONS IN OUR AREA  *****

CITY           SKY/WX    TMP DP  RH WIND       PRES   REMARKS
WALHALLA       NOT AVBL
GRAFTON AIRPOR FAIR      12   9  85 SW9       29.90R WCI   0
VALLEY CITY AR FLURRIES  19  19 100 SW5       29.86S WCI  13
CANDO          NOT AVBL
CAVALIER APRT    N/A     14   9  79 SW7       29.85S WCI   4
GWINNER        MOCLDY    25  19  80 E8        29.85F WCI  16
SHEYENNE NWR     N/A     21  12  67 SE2       29.95
ROLLA          FAIR       9   5  85 SW15      29.79R WCI  -8
 ***** THE ABOVE OBSERVATIONS ARE NON NWS ARE NOT QUALITY
       CONTROLLED AND MAY MIS-REPORT RAIN FOR SNOW...
$$

  *****  WEATHER ACROSS NORTHERN MINNESOTA  *****

CITY           SKY/WX    TMP DP  RH WIND       PRES   REMARKS
FLAG ISLAND    CLOUDY    12   3  67 SW12      29.82R WCI  -2
WARROAD        FAIR      10   5  79 SW6       29.84S WCI   1
ROSEAU         FAIR      10   5  79 S10       29.84F WCI  -3
HALLOCK        FAIR      12   7  79 S9        29.86S WCI   0
THF RVR FALLS  FAIR       9   4  80 SW3       29.89R
BAUDETTE       FAIR      13   2  61 SW7       29.83R WCI   3
WASKISH        FAIR      10   3  72 W10       29.86S WCI  -3
CROOKSTON      FAIR      12   9  85 CALM      29.90S
GREENBUSH NDAW   N/A     12   7  79 SW8         N/A  WCI   1
$$
  *****  WEATHER ACROSS CENTRAL AND WEST MINNESOTA  *****

CITY           SKY/WX    TMP DP  RH WIND       PRES   REMARKS
FOSSTON        FAIR       9   3  78 S6        29.87F WCI  -1
BEMIDJI        FAIR      13   5  70 W6        29.86S WCI   4
PARK RAPIDS    MOCLDY    13   2  61 CALM      29.86S
ELBOW LAKE     CLOUDY    15   9  77 NE6       29.88S WCI   6
WADENA         MOCLDY     9   5  85 CALM      29.88S
DETROIT LAKES  MOCLDY    18  12  79 CALM      29.88F
MOORHEAD       CLOUDY    18  10  73 SE3       29.90F
FERGUS FALLS   CLOUDY    16   9  73 CALM      29.93S
MORRIS MN      FAIR      19  14  79 E3        29.88S
STAPLES        MOCLDY     9   3  78 W5        29.89S WCI   0
$$
  *****  WEATHER ELSEWHERE ACROSS MINNESOTA  *****

CITY           SKY/WX    TMP DP  RH WIND       PRES   REMARKS
DULUTH         FAIR      15   0  51 W6        29.86R WCI   6
INTRNTL FALLS  FAIR      15   2  56 W8        29.83R WCI   4
ELY            FAIR       7   0  72 CALM      29.83R
CLOQUET        FAIR      10   3  72 CALM      29.87S
WHEATON        FAIR      19  12  73 E8        29.92R WCI   9
BRAINERD       FAIR      17   6  62 W6        29.90R WCI   9
HIBBING        FAIR       5  -1  76 CALM      29.85R
ALEXANDRIA     CLOUDY    19  11  70 E3        29.87F
SAINT CLOUD    FAIR      25  12  58 N5        29.90S WCI  19
MINNEAPOLIS    FAIR      30  11  45 W5        29.93R
$$

  *****  WEATHER ACROSS SOUTH DAKOTA  *****

CITY           SKY/WX    TMP DP  RH WIND       PRES   REMARKS
SIOUX FALLS    FAIR      31  24  75 SW8       29.89R WCI  23
BROOKINGS      FAIR      29  24  82 S10       29.84S WCI  20
WATERTOWN      MOCLDY    27  20  75 E12       29.82S WCI  17
HURON          CLOUDY    35  19  52 SW12      29.82S
SISSETON         N/A     22  18  85 SE9       29.87S WCI  12
ABERDEEN       CLOUDY    26  21  81 E6        29.83R WCI  19
MITCHELL       FAIR      32  23  69 SW10      29.87R WCI  24
PIERRE         FAIR      28  15  58 W6        29.79S WCI  22
MOBRIDGE       CLOUDY    33  25  72 E6        29.76R
RAPID CITY     FAIR      24  15  68 CALM      29.76R
$$

  *****  SOME WEATHER IN NEARBY STATES *****

CITY           SKY/WX    TMP DP  RH WIND       PRES   REMARKS
GLASGOW MT     MOCLDY    19  13  77 N3        29.80R
GREAT FALLS MT LGT SNOW  17  14  88 N10       29.70F FOG     WCI   5
CHEYENNE WY    FAIR      18   9  68 W8        29.75S WCI   8
SCOTTSBLUFF NE FAIR      16   7  67 SE7       29.82S WCI   6
OMAHA NE       FAIR      34  24  67 CALM      29.98R
DES MOINES IA  FAIR      36  20  52 CALM      30.00R
DAVENPORT IA   FAIR      35  27  72 SW7       30.01R
CHICAGO IL     LGT RAIN  44  28  53 SW16G25   29.99R
EAU CLAIRE WI  FAIR      25  18  74 W3        29.92R
LA CROSSE WI   FAIR      32  23  69 SW6       29.96R
$$

  *****  SOME NATIONAL WEATHER *****

CITY           SKY/WX    TMP DP  RH WIND       PRES   REMARKS
LA GUARDIA NY  FAIR      40  17  39 W16G25    30.22R
RALEIGH NC     FAIR      41  23  48 CALM      30.28R
ATLANTA GA     FAIR      55  18  23 SE5       30.22R
NEW ORLEANS LA MOCLDY    63  55  75 E12       30.10R
OKLAHOMA CITY  MOCLDY    50  34  54 N7        29.92R
ALBUQUERQUE NM MOCLDY    42  24  49 E6        29.92R
SALT LAKE CITY MOCLDY    38  20  48 S9        29.71F
LOS ANGELES CA MOCLDY    54  44  69 SW8       29.95S
BOISE ID       CLOUDY    32  29  88 E9        29.69F WCI  24
SEATTLE WA     CLOUDY    39  37  92 N10       29.72R
$$

*** WEATHER ACROSS MANITOBA...SASKATCHEWAN AND ONTARIO ***
                ***ONTARIO***

CITY           SKY/WX    TMP DP  RH WIND       PRES   REMARKS
GERALDTON      FLURRIES  10   0  61 W9G17     29.72R WCI  -2
THUNDER BAY    CLEAR     10   1  67 CALM      29.87R
SIOUX LOOKOUT  CLEAR      5  -2  72 SW3       29.77R
TORONTO        CLOUDY    34  19  55 SW14      30.01R WCI  24
BIG TROUT LK   CLEAR      0  -6  78 NW7       29.70R WCI -13
PICKLE LAKE    FLURRIES   7  -4  61 W7        29.71R WCI  -5
DRYDEN         MOCLDY     9   1  72 S6        29.77R WCI  -1
KENORA         PTCLDY    10   0  61 SW7       29.77R WCI   0
$$
                *** MANITOBA***

CITY           SKY/WX    TMP DP  RH WIND       PRES   REMARKS
BRANDON        LGT SNOW  14  10  85 SW12      29.78R WCI   0
DAUPHIN        CLEAR     16   9  73 W14       29.76R WCI   1
ISLAND LAKE    NOT AVBL
PILOT MOUND      N/A     10   5  79 SW10        N/A  WCI  -3
THE PAS        FLURRIES   3  -4  72 NW7       29.81R WCI  -9
THOMPSON       CLEAR    -15 -20  76 W3        29.79R
WINNIPEG       MOCLDY    18  10  73 SW12      29.80R WCI   5
LYNN LAKE      CLEAR    -18 -22  83 W6        29.78S WCI -33
CHURCHILL      CRYSTALS -20 -27  69 NW14      29.78S WCI -44
GILLAM         CLEAR    -15 -20  76 NW5       29.76F WCI -27
$$
                ***SASKATCHEWAN***

CITY           SKY/WX    TMP DP  RH WIND       PRES   REMARKS
ESTEVAN        PTCLDY     9   5  85 SW7       29.77S WCI  -3
KINDERSLEY     PTCLDY     5   0  78 N7        29.83R WCI  -7
LLOYDMINSTER   PTCLDY    -2  -9  71 W6        29.83S WCI -14
PRINCE ALBERT  PTCLDY     1  -8  66 N8        29.84R WCI -12
REGINA         CLOUDY    14   5  67 NW20G29   29.77R WCI  -3
YORKTON        LGT SNOW  12   9  85 N5        29.73R WCI   4
N. BATTLEFORD  CLEAR      0  -8  71 NW8       29.87S WCI -15
LA RONGE       PTCLDY     0 -11  60 W8        29.84S WCI -15
SASKATOON      CLEAR      0  -8  71 NW10      29.85R WCI -17
SWIFT CURRENT  FLURRIES  10   5  79 NW12      29.75S WCI  -4
$$
NOTE: THESE ARE AUTOMATED STATIONS WITH LIMITED QUALITY CONTROL
      "FAIR" INDICATES FEW OR NO CLOUDS BELOW 12,000 FEET WITH NO
      SIGNIFICANT WEATHER AND/OR OBSTRUCTIONS TO VISIBILITY.
      SKY/WX - SKY CONDITION AND SIGNIFICANT WEATHER.
      TMP - AIR TEMPERATURE.    DP   - DEWPOINT TEMPERATURE.
      RH  - RELATIVE HUMIDITY.  PRES - PRESSURE.
      HX  - HEAT INDEX.         WCI  - WIND CHILL INDEX.
$




USA.gov is the U.S. government's official web portal to all federal, state and local government web resources and services.